Regional Weather Roundup
Issued by NWS

Home | Current Version | Previous Version | Text Only | Print | Product List | Glossary On
Versions: 1 2 3 4 5 6 7 8 9 10 11 12 13 14 15 16 17 18 19 20 21 22 23 24 25 26 27 28 29 30 31 32 33 34 35 36 37 38 39 40 41 42 43 44 45 46 47 48 49 50
000
ASUS43 KTOP 191159
RWRKS

WEATHER ROUNDUP FOR KANSAS
NATIONAL WEATHER SERVICE GOODLAND KS
700 AM CDT SAT AUG 19 2017

NOTE:  "FAIR" INDICATES FEW OR NO CLOUDS BELOW 12,000 FEET WITH NO
SIGNIFICANT WEATHER AND/OR OBSTRUCTIONS TO VISIBILITY.

KSZ001>006-013>018-027>032-041>047-191300-
NORTHWEST KANSAS

CITY           SKY/WX    TMP DP  RH WIND       PRES   REMARKS
GOODLAND       CLEAR     64  56  75 S10       30.04S
6HR MIN TEMP:  61; 6HR MAX TEMP:  66;

HAYS           CLEAR     61  59  93 NW3       29.99S
HILL CITY      CLEAR     62  59  90 NW3       30.00R
6HR MIN TEMP:  58; 6HR MAX TEMP:  63;

RUSSELL        CLEAR     63  61  93 SW8       29.97R
6HR MIN TEMP:  63; 6HR MAX TEMP:  71;

$$

KSZ061>065-074>080-084>089-191300-
SOUTHWEST KANSAS

CITY           SKY/WX    TMP DP  RH WIND       PRES   REMARKS
DODGE CITY     CLEAR     67  62  84 CALM      30.01S
6HR MIN TEMP:  64; 6HR MAX TEMP:  67;

ELKHART          N/A     66  65  97 W2          N/A
GARDEN CITY    CLEAR     65  60  84 SE6       30.02F
6HR MIN TEMP:  65; 6HR MAX TEMP:  71;

GREAT BEND     CLEAR     67  65  93 CALM      29.99R
LIBERAL        CLEAR     67  64  90 CALM      30.05R
$$

KSZ066>073-081>083-090>101-191300-
SOUTHEAST KANSAS

CITY           SKY/WX    TMP DP  RH WIND       PRES   REMARKS
CHANUTE        CLOUDY    70  69  97 S3        29.96S
6HR MIN TEMP:  69; 6HR MAX TEMP:  73;

COFFEYVILLE    PTCLDY    73  72  96 NW6       29.97R
6HR MIN TEMP:  70; 6HR MAX TEMP:  73;

HUTCHINSON     CLEAR     69  65  86 SE5       29.96S
6HR MIN TEMP:  68; 6HR MAX TEMP:  75;

MEDICINE LODGE   N/A     69  65  86 CALM      29.97S
NEWTON         CLEAR     69  67  93 S7        29.98S
PARSONS        RAIN      74  72  93 CALM      29.98R FOG
6HR MIN TEMP:  70; 6HR MAX TEMP:  74; 6HR PCP:  0.10;

WICHITA INTL   PTCLDY    71  69  93 S3        29.97R
6HR MIN TEMP:  71; 6HR MAX TEMP:  78;

WICHITA JABRA  PTCLDY    70  70 100 S6        29.97R
6HR MIN TEMP:  70; 6HR MAX TEMP:  74;

WINFIELD       CLEAR     72  69  90 CALM      29.99R
6HR MIN TEMP:  71; 6HR MAX TEMP:  75;

$$

KSZ007>012-019>026-033>040-048>060-102>105-191300-
NORTHEAST KANSAS

CITY           SKY/WX    TMP DP  RH WIND       PRES   REMARKS
CONCORDIA      CLEAR     61  61 100 CALM      29.98R
6HR MIN TEMP:  61; 6HR MAX TEMP:  72;

EMPORIA        CLEAR     68  64  87 S8        29.95S
6HR MIN TEMP:  67; 6HR MAX TEMP:  74;

LAWRENCE       CLEAR     63  63 100 CALM      29.95S FOG
6HR MIN TEMP:  63; 6HR MAX TEMP:  69;

MANHATTAN      CLEAR     63  62  97 CALM      29.96R FOG
6HR MIN TEMP:  62; 6HR MAX TEMP:  68;

OLATHE IND     CLEAR     66  66 100 CALM      29.96R
6HR MIN TEMP:  66; 6HR MAX TEMP:  72;

OLATHE EXE     CLEAR     67  67 100 CALM      29.96R
6HR MIN TEMP:  65; 6HR MAX TEMP:  73;

SALINA         CLEAR     69  65  86 E3        29.96R
6HR MIN TEMP:  66; 6HR MAX TEMP:  75;

TOPEKA BILLARD CLEAR     65  65 100 CALM      29.95R FOG
6HR MIN TEMP:  63; 6HR MAX TEMP:  72;

TOPEKA FORBES  CLEAR     66  64  93 CALM      29.95S
6HR MIN TEMP:  65; 6HR MAX TEMP:  73;

$$



USA.gov is the U.S. government's official web portal to all federal, state and local government web resources and services.